BAW410 EGLL-LEIB

Flight info

Callsign BAW410
Flight time 2h 5m
Altitude 35000
Route MODMI M185 MID L151 SITET UN859 SOPIL DCT BALAN DCT EVPOK DCT NARAK DCT GAI DCT LOMRA DCT ROCAN DCT PUMAL/N0445F310 N859 BCN Z174 CORDA
Aircraft A321/M-SDE3FGHIRWY/LB1

Departure

Time 2026-05-06 11:50
Airport London Heathrow Airport (EGLL)

Arrival

Time 2026-05-06 13:55
Airport Ibiza Airport (LEIB)
Time Latitude Longitude Altitude Speed Heading
2026-05-06 11:09 51.47134 -0.48604 90 ft 0 kts 269°
2026-05-06 11:36 51.47134 -0.48594 86 ft 4 kts 269°
2026-05-06 11:36 51.47134 -0.48551 88 ft 4 kts 269°
2026-05-06 11:36 51.47134 -0.48517 90 ft 4 kts 264°
2026-05-06 11:37 51.47142 -0.48481 90 ft 4 kts 213°
2026-05-06 11:37 51.47164 -0.48472 90 ft 4 kts 179°
2026-05-06 11:37 51.47177 -0.48472 88 ft 0 kts 179°
2026-05-06 11:41 51.47176 -0.48472 86 ft 1 kts 179°
2026-05-06 11:41 51.47128 -0.48472 88 ft 10 kts 180°
2026-05-06 11:41 51.47058 -0.48471 89 ft 11 kts 180°
2026-05-06 11:42 51.46982 -0.48471 89 ft 11 kts 180°
2026-05-06 11:42 51.46913 -0.48470 89 ft 6 kts 179°
2026-05-06 11:42 51.46889 -0.48470 88 ft 1 kts 179°
2026-05-06 11:42 51.46883 -0.48469 88 ft 0 kts 179°
2026-05-06 11:43 51.46868 -0.48469 88 ft 6 kts 179°
2026-05-06 11:43 51.46828 -0.48468 86 ft 1 kts 179°
2026-05-06 11:43 51.46825 -0.48468 86 ft 1 kts 179°
2026-05-06 11:44 51.46818 -0.48468 86 ft 1 kts 179°
2026-05-06 11:44 51.46817 -0.48468 86 ft 0 kts 179°
2026-05-06 11:44 51.46805 -0.48468 86 ft 6 kts 179°
2026-05-06 11:45 51.46737 -0.48468 86 ft 12 kts 179°
2026-05-06 11:45 51.46660 -0.48467 86 ft 9 kts 179°
2026-05-06 11:45 51.46606 -0.48467 86 ft 4 kts 179°
2026-05-06 11:45 51.46601 -0.48467 86 ft 0 kts 179°
2026-05-06 11:47 51.46596 -0.48467 86 ft 3 kts 179°
2026-05-06 11:47 51.46557 -0.48466 86 ft 8 kts 180°
2026-05-06 11:48 51.46499 -0.48466 86 ft 9 kts 179°
2026-05-06 11:48 51.46479 -0.48404 87 ft 5 kts 89°
2026-05-06 11:48 51.46479 -0.48401 87 ft 0 kts 89°
2026-05-06 11:49 51.46479 -0.48400 87 ft 1 kts 89°
2026-05-06 11:49 51.46481 -0.48173 88 ft 54 kts 89°
2026-05-06 11:49 51.46485 -0.47200 90 ft 119 kts 89°
2026-05-06 11:49 51.46488 -0.45576 122 ft 166 kts 89°
2026-05-06 11:50 51.46469 -0.43064 964 ft 170 kts 85°
2026-05-06 11:50 51.46432 -0.41795 1381 ft 177 kts 93°
2026-05-06 11:50 51.45882 -0.39834 1573 ft 207 kts 125°
2026-05-06 11:50 51.44890 -0.38013 1845 ft 228 kts 138°
2026-05-06 11:51 51.43399 -0.36876 2010 ft 256 kts 159°
2026-05-06 11:51 51.41633 -0.35957 2482 ft 270 kts 165°
2026-05-06 11:51 51.39759 -0.35855 3171 ft 273 kts 193°
2026-05-06 11:51 51.38014 -0.37012 3923 ft 274 kts 210°
2026-05-06 11:52 51.36313 -0.38428 4645 ft 277 kts 208°
2026-05-06 11:52 51.34574 -0.39813 5354 ft 281 kts 208°
2026-05-06 11:52 51.32810 -0.41191 6113 ft 283 kts 209°
2026-05-06 11:52 51.31036 -0.42565 6879 ft 284 kts 209°
2026-05-06 11:53 51.29251 -0.43948 7571 ft 286 kts 209°
2026-05-06 11:53 51.27458 -0.45346 8258 ft 289 kts 208°
2026-05-06 11:53 51.25645 -0.46777 8934 ft 292 kts 208°
2026-05-06 11:53 51.23817 -0.48232 9593 ft 296 kts 209°
2026-05-06 11:54 51.21967 -0.49701 10199 ft 299 kts 209°
2026-05-06 11:54 51.20034 -0.51216 10354 ft 320 kts 207°
2026-05-06 11:54 51.17970 -0.52818 10486 ft 340 kts 208°
2026-05-06 11:54 51.15794 -0.54497 10695 ft 354 kts 208°
2026-05-06 11:55 51.13545 -0.56223 11161 ft 360 kts 206°
2026-05-06 11:55 51.11287 -0.57951 11747 ft 362 kts 207°
2026-05-06 11:55 51.08970 -0.59581 12333 ft 366 kts 200°
2026-05-06 11:55 51.06484 -0.60510 12891 ft 370 kts 189°
2026-05-06 11:56 51.03895 -0.60588 13408 ft 376 kts 175°
2026-05-06 11:56 51.01328 -0.59758 14010 ft 378 kts 163°
2026-05-06 11:56 50.98872 -0.58210 14453 ft 382 kts 158°
2026-05-06 11:56 50.96445 -0.56588 15004 ft 384 kts 158°
2026-05-06 11:57 50.93968 -0.54944 15558 ft 384 kts 158°
2026-05-06 11:57 50.91505 -0.53316 16103 ft 386 kts 158°
2026-05-06 11:57 50.89018 -0.51679 16618 ft 388 kts 158°
2026-05-06 11:57 50.86519 -0.50038 17074 ft 392 kts 158°
2026-05-06 11:58 50.83991 -0.48382 17542 ft 395 kts 158°
2026-05-06 11:58 50.81438 -0.46711 18038 ft 397 kts 159°
2026-05-06 11:58 50.78892 -0.45049 18493 ft 398 kts 159°
2026-05-06 11:58 50.76321 -0.43374 18875 ft 401 kts 159°
2026-05-06 11:59 50.73732 -0.41685 19267 ft 404 kts 159°
2026-05-06 11:59 50.71130 -0.39985 19704 ft 405 kts 159°
2026-05-06 11:59 50.68521 -0.38278 20099 ft 407 kts 159°
2026-05-06 11:59 50.65896 -0.36567 20529 ft 408 kts 158°
2026-05-06 12:00 50.63262 -0.34852 20934 ft 410 kts 159°
2026-05-06 12:00 50.60627 -0.33139 21352 ft 412 kts 159°
2026-05-06 12:00 50.57977 -0.31414 21763 ft 413 kts 159°
2026-05-06 12:00 50.55308 -0.29680 22159 ft 415 kts 159°
2026-05-06 12:01 50.52635 -0.27949 22553 ft 417 kts 159°
2026-05-06 12:01 50.49940 -0.26212 22935 ft 419 kts 159°
2026-05-06 12:01 50.47240 -0.24472 23307 ft 421 kts 159°
2026-05-06 12:01 50.44517 -0.22718 23667 ft 423 kts 159°
2026-05-06 12:02 50.41785 -0.20960 23968 ft 425 kts 159°
2026-05-06 12:02 50.39052 -0.19201 24313 ft 426 kts 159°
2026-05-06 12:02 50.36301 -0.17430 24633 ft 428 kts 159°
2026-05-06 12:02 50.33546 -0.15662 24941 ft 429 kts 159°
2026-05-06 12:03 50.30771 -0.13887 25246 ft 431 kts 159°
2026-05-06 12:03 50.27990 -0.12110 25539 ft 433 kts 159°
2026-05-06 12:03 50.25190 -0.10323 25843 ft 435 kts 159°
2026-05-06 12:03 50.22387 -0.08539 26140 ft 437 kts 159°
2026-05-06 12:04 50.19570 -0.06731 26438 ft 439 kts 159°
2026-05-06 12:04 50.16763 -0.04843 26732 ft 440 kts 158°
2026-05-06 12:04 50.13958 -0.02882 27026 ft 442 kts 158°
2026-05-06 12:04 50.11149 -0.00897 27313 ft 444 kts 158°
2026-05-06 12:05 50.08235 0.00698 27556 ft 445 kts 166°
2026-05-06 12:05 50.05234 0.01936 27818 ft 447 kts 167°
2026-05-06 12:05 50.02219 0.03136 28086 ft 449 kts 167°
2026-05-06 12:05 49.99187 0.04317 28344 ft 450 kts 166°
2026-05-06 12:06 49.96138 0.05494 28587 ft 452 kts 166°
2026-05-06 12:06 49.93077 0.06675 28814 ft 454 kts 167°
2026-05-06 12:06 49.90003 0.07864 29039 ft 456 kts 166°
2026-05-06 12:06 49.86920 0.09066 29245 ft 458 kts 166°
2026-05-06 12:07 49.83828 0.10278 29458 ft 459 kts 166°
2026-05-06 12:07 49.80736 0.11490 29772 ft 458 kts 166°
2026-05-06 12:07 49.77654 0.12699 30067 ft 457 kts 166°
2026-05-06 12:07 49.74572 0.13906 30352 ft 456 kts 166°
2026-05-06 12:08 49.71499 0.15104 30581 ft 456 kts 166°
2026-05-06 12:08 49.68416 0.16301 30799 ft 457 kts 166°
2026-05-06 12:08 49.65338 0.17512 31037 ft 457 kts 165°
2026-05-06 12:08 49.62256 0.18749 31263 ft 457 kts 165°
2026-05-06 12:09 49.59184 0.19994 31537 ft 456 kts 165°
2026-05-06 12:09 49.56124 0.21239 31803 ft 455 kts 165°
2026-05-06 12:09 49.53069 0.22481 32069 ft 454 kts 165°
2026-05-06 12:09 49.50011 0.23719 32283 ft 455 kts 165°
2026-05-06 12:10 49.46941 0.24954 32467 ft 455 kts 165°
2026-05-06 12:10 49.43872 0.26178 32678 ft 456 kts 165°
2026-05-06 12:10 49.40803 0.27396 32878 ft 456 kts 165°
2026-05-06 12:10 49.37732 0.28617 33144 ft 455 kts 165°
2026-05-06 12:11 49.34687 0.29829 33377 ft 455 kts 165°
2026-05-06 12:11 49.31619 0.31048 33654 ft 453 kts 165°
2026-05-06 12:11 49.28574 0.32277 33867 ft 453 kts 164°
2026-05-06 12:11 49.25527 0.33549 34046 ft 453 kts 164°
2026-05-06 12:12 49.22495 0.34837 34224 ft 453 kts 164°
2026-05-06 12:12 49.19453 0.36137 34370 ft 453 kts 164°
2026-05-06 12:12 49.16417 0.37438 34562 ft 452 kts 164°
2026-05-06 12:12 49.13390 0.38730 34719 ft 452 kts 164°
2026-05-06 12:13 49.10352 0.40012 34890 ft 452 kts 165°
2026-05-06 12:13 49.07322 0.41282 34968 ft 452 kts 164°
2026-05-06 12:13 49.01251 0.43817 34967 ft 453 kts 164°
2026-05-06 12:14 48.95181 0.46343 34960 ft 452 kts 164°
2026-05-06 12:14 48.89121 0.48853 34963 ft 451 kts 164°
2026-05-06 12:15 48.83059 0.51368 34969 ft 452 kts 164°
2026-05-06 12:15 48.76986 0.53871 34971 ft 453 kts 165°
2026-05-06 12:16 48.70878 0.56282 34980 ft 454 kts 165°
2026-05-06 12:16 48.64773 0.58637 34984 ft 453 kts 165°
2026-05-06 12:17 48.58677 0.61007 34977 ft 452 kts 165°
2026-05-06 12:17 48.52579 0.63393 34973 ft 453 kts 165°
2026-05-06 12:18 48.46480 0.65830 34981 ft 453 kts 165°
2026-05-06 12:18 48.40394 0.68320 34987 ft 453 kts 164°
2026-05-06 12:19 48.34307 0.70808 34983 ft 454 kts 164°
2026-05-06 12:19 48.28207 0.73280 34980 ft 453 kts 165°
2026-05-06 12:20 48.22119 0.75725 34980 ft 453 kts 165°
2026-05-06 12:20 48.16019 0.78120 34984 ft 453 kts 165°
2026-05-06 12:21 48.09926 0.80498 34980 ft 453 kts 165°
2026-05-06 12:21 48.03867 0.82873 34977 ft 453 kts 165°
2026-05-06 12:22 47.97737 0.85275 34982 ft 453 kts 166°
2026-05-06 12:22 47.91647 0.87638 34983 ft 452 kts 166°
2026-05-06 12:23 47.85565 0.90000 34980 ft 452 kts 166°
2026-05-06 12:23 47.79490 0.92361 34976 ft 451 kts 165°
2026-05-06 12:24 47.73411 0.94724 34971 ft 451 kts 166°
2026-05-06 12:24 47.67271 0.96695 34966 ft 451 kts 170°
2026-05-06 12:25 47.61080 0.98229 34964 ft 452 kts 171°
2026-05-06 12:25 47.54869 0.99690 34968 ft 452 kts 171°
2026-05-06 12:26 47.48660 1.01177 34964 ft 452 kts 171°
2026-05-06 12:26 47.42456 1.02700 34967 ft 452 kts 171°
2026-05-06 12:27 47.36253 1.04231 34961 ft 452 kts 171°
2026-05-06 12:27 47.31093 1.05488 34964 ft 453 kts 171°
2026-05-06 12:28 47.24870 1.06991 34957 ft 453 kts 171°
2026-05-06 12:28 47.18654 1.08493 34955 ft 452 kts 171°
2026-05-06 12:29 47.12449 1.09997 34948 ft 452 kts 171°
2026-05-06 12:29 47.06228 1.11507 34950 ft 453 kts 171°
2026-05-06 12:30 47.00009 1.13012 34950 ft 453 kts 171°
2026-05-06 12:30 46.93789 1.14497 34943 ft 453 kts 171°
2026-05-06 12:31 46.87569 1.15979 34942 ft 453 kts 171°
2026-05-06 12:31 46.81341 1.17467 34943 ft 453 kts 171°
2026-05-06 12:32 46.75116 1.18960 34944 ft 454 kts 171°
2026-05-06 12:32 46.68888 1.20439 34944 ft 453 kts 171°
2026-05-06 12:33 46.62667 1.21914 34947 ft 453 kts 171°
2026-05-06 12:33 46.56446 1.23383 34949 ft 453 kts 171°
2026-05-06 12:34 46.50224 1.24852 34943 ft 452 kts 171°
2026-05-06 12:34 46.44021 1.26321 34941 ft 452 kts 171°
2026-05-06 12:35 46.37810 1.27797 34943 ft 452 kts 171°
2026-05-06 12:35 46.31599 1.29251 34939 ft 452 kts 172°
2026-05-06 12:36 46.25391 1.30686 34941 ft 452 kts 172°
2026-05-06 12:36 46.19180 1.32137 34936 ft 452 kts 171°
2026-05-06 12:37 46.12971 1.33581 34937 ft 452 kts 172°
2026-05-06 12:37 46.06752 1.35031 34939 ft 452 kts 172°
2026-05-06 12:38 46.00542 1.36472 34939 ft 452 kts 172°
2026-05-06 12:38 45.94325 1.37910 34935 ft 452 kts 172°
2026-05-06 12:39 45.88121 1.39337 34937 ft 452 kts 172°
2026-05-06 12:39 45.81908 1.40772 34936 ft 452 kts 172°
2026-05-06 12:40 45.75704 1.42207 34930 ft 452 kts 172°
2026-05-06 12:40 45.69488 1.43626 34933 ft 452 kts 173°
2026-05-06 12:41 45.63266 1.45052 34933 ft 452 kts 172°
2026-05-06 12:41 45.57051 1.46477 34938 ft 452 kts 173°
2026-05-06 12:42 45.50839 1.47886 34939 ft 452 kts 173°
2026-05-06 12:42 45.44613 1.49289 34940 ft 453 kts 173°
2026-05-06 12:43 45.38387 1.50702 34941 ft 453 kts 173°
2026-05-06 12:43 45.32163 1.52119 34937 ft 453 kts 173°
2026-05-06 12:44 45.25939 1.53516 34940 ft 453 kts 173°
2026-05-06 12:44 45.19708 1.54917 34941 ft 453 kts 173°
2026-05-06 12:45 45.13491 1.56315 34938 ft 452 kts 173°
2026-05-06 12:46 45.04162 1.58410 34937 ft 452 kts 173°
2026-05-06 12:46 44.97954 1.59807 34950 ft 452 kts 174°
2026-05-06 12:47 44.91752 1.61186 34950 ft 451 kts 174°
2026-05-06 12:47 44.85551 1.62561 34953 ft 451 kts 174°
2026-05-06 12:48 44.79361 1.63932 34966 ft 450 kts 174°
2026-05-06 12:48 44.73171 1.65307 34960 ft 450 kts 173°
2026-05-06 12:49 44.66987 1.66676 34967 ft 450 kts 174°
2026-05-06 12:49 44.60800 1.68034 34970 ft 450 kts 174°
2026-05-06 12:50 44.54630 1.69392 34968 ft 449 kts 174°
2026-05-06 12:50 44.48468 1.70746 34976 ft 448 kts 174°
2026-05-06 12:51 44.42304 1.72096 34978 ft 448 kts 174°
2026-05-06 12:51 44.36150 1.73440 34978 ft 447 kts 174°
2026-05-06 12:52 44.30015 1.74785 34987 ft 446 kts 174°
2026-05-06 12:52 44.23889 1.76136 34986 ft 446 kts 174°
2026-05-06 12:53 44.17765 1.77494 34981 ft 445 kts 174°
2026-05-06 12:53 44.11653 1.78840 34983 ft 445 kts 175°
2026-05-06 12:54 44.05539 1.80188 34983 ft 444 kts 174°
2026-05-06 12:54 43.99433 1.81537 34971 ft 444 kts 175°
2026-05-06 12:55 43.93331 1.82776 34978 ft 442 kts 178°
2026-05-06 12:55 43.87222 1.83438 34990 ft 439 kts 181°
2026-05-06 12:56 43.81122 1.83866 34983 ft 439 kts 182°
2026-05-06 12:56 43.75021 1.84364 34992 ft 439 kts 181°
2026-05-06 12:57 43.68923 1.84956 34997 ft 439 kts 180°
2026-05-06 12:57 43.62834 1.85570 34998 ft 439 kts 180°
2026-05-06 12:58 43.56743 1.86173 34983 ft 438 kts 181°
2026-05-06 12:58 43.50667 1.86749 34988 ft 438 kts 181°
2026-05-06 12:59 43.44583 1.87332 34986 ft 438 kts 181°
2026-05-06 12:59 43.38507 1.87910 34971 ft 437 kts 181°
2026-05-06 13:00 43.32452 1.88493 34977 ft 436 kts 181°
2026-05-06 13:00 43.26395 1.89080 34979 ft 436 kts 181°
2026-05-06 13:01 43.20393 1.89653 34967 ft 435 kts 181°
2026-05-06 13:01 43.14311 1.90233 34974 ft 435 kts 181°
2026-05-06 13:02 43.08280 1.90806 34978 ft 434 kts 181°
2026-05-06 13:02 43.02300 1.91377 34977 ft 433 kts 181°
2026-05-06 13:03 42.96299 1.91950 34981 ft 431 kts 182°
2026-05-06 13:03 42.90328 1.92510 34985 ft 430 kts 182°
2026-05-06 13:04 42.84376 1.93072 34986 ft 428 kts 182°
2026-05-06 13:04 42.78435 1.93632 34985 ft 428 kts 182°
2026-05-06 13:05 42.72503 1.94184 34978 ft 427 kts 182°
2026-05-06 13:05 42.66576 1.94760 34979 ft 428 kts 180°
2026-05-06 13:06 42.60656 1.95802 34980 ft 430 kts 177°
2026-05-06 13:06 42.54746 1.97137 34964 ft 430 kts 177°
2026-05-06 13:07 42.48842 1.98435 34960 ft 429 kts 178°
2026-05-06 13:07 42.42950 1.99623 34961 ft 428 kts 178°
2026-05-06 13:08 42.37056 2.00778 34922 ft 428 kts 179°
2026-05-06 13:08 42.31160 2.01586 34931 ft 424 kts 182°
2026-05-06 13:09 42.25274 2.02035 34923 ft 424 kts 183°
2026-05-06 13:09 42.19380 2.02471 34930 ft 424 kts 183°
2026-05-06 13:10 42.14442 2.02919 34915 ft 425 kts 182°
2026-05-06 13:10 42.08572 2.03502 34929 ft 426 kts 182°
2026-05-06 13:11 42.02611 2.04087 34938 ft 426 kts 182°
2026-05-06 13:11 41.96697 2.04643 34910 ft 426 kts 182°
2026-05-06 13:12 41.90791 2.05190 34938 ft 426 kts 182°
2026-05-06 13:12 41.84879 2.05746 34955 ft 426 kts 182°
2026-05-06 13:13 41.78971 2.06304 34958 ft 425 kts 182°
2026-05-06 13:13 41.73080 2.06856 34933 ft 424 kts 183°
2026-05-06 13:14 41.67180 2.07405 34949 ft 424 kts 183°
2026-05-06 13:14 41.61327 2.07943 34959 ft 425 kts 183°
2026-05-06 13:15 41.55399 2.08488 34967 ft 425 kts 183°
2026-05-06 13:15 41.49498 2.09037 34951 ft 425 kts 183°
2026-05-06 13:16 41.43602 2.09589 34983 ft 425 kts 183°
2026-05-06 13:16 41.37700 2.10137 34990 ft 425 kts 183°
2026-05-06 13:17 41.31804 2.10681 34961 ft 425 kts 183°
2026-05-06 13:17 41.25916 2.11433 34981 ft 427 kts 180°
2026-05-06 13:18 41.20017 2.12495 34986 ft 428 kts 179°
2026-05-06 13:18 41.14113 2.13581 34988 ft 427 kts 180°
2026-05-06 13:19 41.08219 2.14588 34970 ft 427 kts 180°
2026-05-06 13:19 41.02331 2.15552 34980 ft 426 kts 180°
2026-05-06 13:20 40.96444 2.16518 34978 ft 426 kts 180°
2026-05-06 13:20 40.90591 2.17492 34980 ft 426 kts 180°
2026-05-06 13:21 40.84706 2.18473 34961 ft 426 kts 180°
2026-05-06 13:21 40.78823 2.19452 34979 ft 426 kts 180°
2026-05-06 13:22 40.72908 2.20428 34986 ft 426 kts 180°
2026-05-06 13:22 40.67065 2.21385 34988 ft 426 kts 180°
2026-05-06 13:23 40.61187 2.22353 34989 ft 426 kts 180°
2026-05-06 13:23 40.55316 2.23326 34989 ft 425 kts 180°
2026-05-06 13:24 40.49438 2.24297 34985 ft 425 kts 180°
2026-05-06 13:24 40.43568 2.25266 34963 ft 425 kts 180°
2026-05-06 13:25 40.37704 2.26403 34973 ft 428 kts 177°
2026-05-06 13:25 40.31852 2.27966 34936 ft 430 kts 175°
2026-05-06 13:25 40.28933 2.28793 34692 ft 428 kts 176°
2026-05-06 13:26 40.26022 2.29602 34436 ft 427 kts 176°
2026-05-06 13:26 40.23119 2.30383 34201 ft 426 kts 176°
2026-05-06 13:26 40.20215 2.31146 33921 ft 425 kts 177°
2026-05-06 13:26 40.17308 2.31894 33648 ft 425 kts 177°
2026-05-06 13:27 40.14401 2.32631 33376 ft 426 kts 177°
2026-05-06 13:27 40.11493 2.33365 33100 ft 427 kts 177°
2026-05-06 13:27 40.08576 2.34103 32837 ft 428 kts 177°
2026-05-06 13:27 40.05653 2.34851 32565 ft 427 kts 177°
2026-05-06 13:28 40.02740 2.35602 32300 ft 426 kts 176°
2026-05-06 13:28 39.99842 2.36347 32028 ft 424 kts 176°
2026-05-06 13:28 39.96951 2.37088 31774 ft 423 kts 176°
2026-05-06 13:28 39.94071 2.37828 31517 ft 422 kts 176°
2026-05-06 13:29 39.91197 2.38566 31256 ft 420 kts 176°
2026-05-06 13:29 39.88335 2.39299 31008 ft 419 kts 176°
2026-05-06 13:29 39.85484 2.40029 30762 ft 417 kts 176°
2026-05-06 13:29 39.82637 2.40756 30519 ft 416 kts 176°
2026-05-06 13:30 39.79798 2.41480 30278 ft 414 kts 176°
2026-05-06 13:30 39.76976 2.42159 30001 ft 410 kts 179°
2026-05-06 13:30 39.74158 2.42393 29719 ft 402 kts 187°
2026-05-06 13:30 39.71403 2.42108 29434 ft 395 kts 193°
2026-05-06 13:31 39.68675 2.41676 29160 ft 394 kts 193°
2026-05-06 13:31 39.65963 2.41256 28882 ft 393 kts 193°
2026-05-06 13:31 39.63252 2.40844 28610 ft 391 kts 193°
2026-05-06 13:31 39.60555 2.40437 28339 ft 390 kts 192°
2026-05-06 13:32 39.57882 2.39962 28071 ft 385 kts 197°
2026-05-06 13:32 39.55330 2.39028 27783 ft 378 kts 205°
2026-05-06 13:32 39.53074 2.37682 27524 ft 373 kts 213°
2026-05-06 13:32 39.50917 2.35848 27265 ft 369 kts 219°
2026-05-06 13:33 39.48843 2.33899 27003 ft 368 kts 219°
2026-05-06 13:33 39.46768 2.31961 26751 ft 367 kts 219°
2026-05-06 13:33 39.44699 2.30029 26492 ft 366 kts 219°
2026-05-06 13:33 39.42639 2.28111 26260 ft 365 kts 219°
2026-05-06 13:34 39.40576 2.26193 26003 ft 364 kts 219°
2026-05-06 13:34 39.38526 2.24289 25750 ft 363 kts 219°
2026-05-06 13:34 39.36472 2.22383 25513 ft 362 kts 219°
2026-05-06 13:34 39.34429 2.20486 25270 ft 361 kts 219°
2026-05-06 13:35 39.32387 2.18591 24956 ft 360 kts 218°
2026-05-06 13:35 39.30356 2.16713 24602 ft 359 kts 218°
2026-05-06 13:35 39.28330 2.14836 24249 ft 358 kts 218°
2026-05-06 13:35 39.26317 2.12967 23905 ft 356 kts 218°
2026-05-06 13:36 39.24308 2.11105 23561 ft 355 kts 218°
2026-05-06 13:36 39.22311 2.09256 23153 ft 353 kts 218°
2026-05-06 13:36 39.20319 2.07412 22748 ft 351 kts 218°
2026-05-06 13:36 39.18334 2.05578 22348 ft 350 kts 218°
2026-05-06 13:37 39.16362 2.03757 21954 ft 348 kts 218°
2026-05-06 13:37 39.14395 2.01946 21565 ft 347 kts 218°
2026-05-06 13:37 39.12434 2.00140 21177 ft 345 kts 218°
2026-05-06 13:37 39.10487 1.98347 20784 ft 344 kts 218°
2026-05-06 13:38 39.08542 1.96555 20403 ft 343 kts 218°
2026-05-06 13:38 39.06603 1.94772 20112 ft 342 kts 218°
2026-05-06 13:38 39.04671 1.92998 19819 ft 341 kts 218°
2026-05-06 13:38 39.02739 1.91223 19529 ft 341 kts 218°
2026-05-06 13:39 39.00810 1.89455 19242 ft 340 kts 218°
2026-05-06 13:39 38.98940 1.87611 18953 ft 337 kts 225°
2026-05-06 13:39 38.97399 1.85363 18670 ft 335 kts 236°
2026-05-06 13:39 38.96107 1.82874 18389 ft 334 kts 237°
2026-05-06 13:40 38.94822 1.80401 18093 ft 333 kts 237°
2026-05-06 13:40 38.93530 1.77931 17771 ft 332 kts 237°
2026-05-06 13:40 38.92239 1.75476 17451 ft 331 kts 237°
2026-05-06 13:40 38.90952 1.73031 17152 ft 330 kts 237°
2026-05-06 13:41 38.89671 1.70598 16890 ft 329 kts 237°
2026-05-06 13:41 38.88394 1.68171 16622 ft 328 kts 237°
2026-05-06 13:41 38.87121 1.65749 16196 ft 326 kts 237°
2026-05-06 13:41 38.85855 1.63344 15797 ft 324 kts 237°
2026-05-06 13:42 38.84602 1.60952 15400 ft 323 kts 239°
2026-05-06 13:42 38.83618 1.58386 14955 ft 320 kts 250°
2026-05-06 13:42 38.82993 1.55655 14448 ft 318 kts 254°
2026-05-06 13:42 38.82397 1.52933 13929 ft 316 kts 254°
2026-05-06 13:43 38.81801 1.50228 13368 ft 315 kts 254°
2026-05-06 13:43 38.81205 1.47535 12788 ft 313 kts 254°
2026-05-06 13:43 38.80608 1.44848 12229 ft 313 kts 254°
2026-05-06 13:43 38.79864 1.42234 11672 ft 312 kts 244°
2026-05-06 13:44 38.78848 1.39774 11124 ft 312 kts 243°
2026-05-06 13:44 38.77831 1.37329 10583 ft 311 kts 243°
2026-05-06 13:44 38.76815 1.34881 10052 ft 311 kts 243°
2026-05-06 13:44 38.75807 1.32449 9519 ft 303 kts 243°
2026-05-06 13:45 38.74841 1.30126 9059 ft 288 kts 243°
2026-05-06 13:45 38.73048 1.25797 8116 ft 264 kts 243°
2026-05-06 13:45 38.72203 1.23759 7664 ft 255 kts 242°
2026-05-06 13:46 38.71381 1.21782 7221 ft 248 kts 242°
2026-05-06 13:46 38.70577 1.19852 6808 ft 244 kts 242°
2026-05-06 13:46 38.69772 1.17932 6387 ft 244 kts 242°
2026-05-06 13:46 38.68975 1.16031 6114 ft 242 kts 242°
2026-05-06 13:47 38.68180 1.14131 5633 ft 242 kts 241°
2026-05-06 13:47 38.67385 1.12238 5244 ft 241 kts 241°
2026-05-06 13:47 38.66619 1.10334 4923 ft 244 kts 248°
2026-05-06 13:47 38.66432 1.08239 4663 ft 236 kts 281°
2026-05-06 13:48 38.67124 1.06401 4449 ft 229 kts 314°
2026-05-06 13:48 38.68371 1.05149 4269 ft 227 kts 334°
2026-05-06 13:48 38.69848 1.04481 4098 ft 225 kts 352°
2026-05-06 13:48 38.71391 1.04452 4000 ft 222 kts 12°
2026-05-06 13:49 38.72849 1.05035 3924 ft 218 kts 29°
2026-05-06 13:49 38.74068 1.06145 3849 ft 215 kts 47°
2026-05-06 13:49 38.74952 1.07680 3784 ft 213 kts 63°
2026-05-06 13:49 38.75626 1.09297 3689 ft 199 kts 63°
2026-05-06 13:50 38.76252 1.10793 3636 ft 183 kts 63°
2026-05-06 13:50 38.76846 1.12216 3637 ft 182 kts 63°
2026-05-06 13:50 38.77242 1.13165 3639 ft 182 kts 62°
2026-05-06 13:50 38.77840 1.14596 3596 ft 183 kts 63°
2026-05-06 13:51 38.78437 1.16027 3420 ft 180 kts 62°
2026-05-06 13:51 38.79037 1.17466 3201 ft 181 kts 62°
2026-05-06 13:51 38.79633 1.18896 2957 ft 182 kts 63°
2026-05-06 13:51 38.80226 1.20320 2717 ft 182 kts 62°
2026-05-06 13:52 38.80808 1.21716 2489 ft 178 kts 62°
2026-05-06 13:52 38.81385 1.23104 2245 ft 170 kts 62°
2026-05-06 13:52 38.81919 1.24386 2017 ft 161 kts 62°
2026-05-06 13:52 38.82444 1.25649 1812 ft 157 kts 62°
2026-05-06 13:53 38.82934 1.26825 1633 ft 149 kts 61°
2026-05-06 13:53 38.83413 1.27978 1425 ft 145 kts 62°
2026-05-06 13:53 38.83885 1.29114 1227 ft 143 kts 62°
2026-05-06 13:53 38.84349 1.30248 1013 ft 144 kts 63°
2026-05-06 13:54 38.84820 1.31374 836 ft 141 kts 62°
2026-05-06 13:54 38.85290 1.32475 686 ft 142 kts 63°
2026-05-06 13:54 38.85747 1.33587 513 ft 139 kts 65°
2026-05-06 13:54 38.86206 1.34676 337 ft 139 kts 64°
2026-05-06 13:55 38.86647 1.35756 66 ft 134 kts 65°
2026-05-06 13:55 38.87044 1.36732 8 ft 105 kts 63°
2026-05-06 13:55 38.87307 1.37368 10 ft 56 kts 61°
2026-05-06 13:55 38.87449 1.37713 9 ft 30 kts 58°
2026-05-06 13:56 38.87584 1.37858 11 ft 16 kts 33°
2026-05-06 13:56 38.87638 1.37903 10 ft 7 kts 32°
2026-05-06 13:56 38.87689 1.37908 9 ft 9 kts 327°
2026-05-06 13:56 38.87689 1.37837 9 ft 9 kts 242°
2026-05-06 13:57 38.87656 1.37757 9 ft 11 kts 241°
2026-05-06 13:57 38.87618 1.37667 9 ft 12 kts 241°
2026-05-06 13:57 38.87575 1.37565 9 ft 14 kts 242°
2026-05-06 13:57 38.87528 1.37452 9 ft 15 kts 242°
2026-05-06 13:58 38.87477 1.37329 9 ft 16 kts 242°
2026-05-06 13:58 38.87422 1.37196 9 ft 17 kts 242°
2026-05-06 13:58 38.87368 1.37067 9 ft 14 kts 242°
2026-05-06 13:58 38.87324 1.36960 9 ft 13 kts 242°
2026-05-06 13:59 38.87300 1.36877 9 ft 9 kts 285°
2026-05-06 13:59 38.87354 1.36829 9 ft 10 kts 334°
2026-05-06 13:59 38.87414 1.36780 8 ft 10 kts 303°
2026-05-06 13:59 38.87402 1.36709 8 ft 5 kts 257°
2026-05-06 14:00 38.87428 1.36676 10 ft 6 kts 330°
2026-05-06 14:00 38.87456 1.36664 8 ft 4 kts
2026-05-06 14:00 38.87462 1.36665 8 ft 0 kts